Hoquiam, WA
on Monday, February 11, 2013

Monday
Previous Day Next Day
Daily Summary
 ActualAverageRecord
Temperature
Mean Temperature °F 44°F  
Max Temperature 48°F 49°F 66°F (1963)
Min Temperature 42°F 38°F 29°F (1954)
Degree Days
Heating Degree Days 20 21  
Month to date heating degree days 241  
Cooling Degree Days 0 0  
Month to date cooling degree days 0  
Year to date cooling degree days 0  
Moisture
Dew Point 43°F   
Average Humidity 93    
Maximum Humidity 100    
Minimum Humidity 82    
Precipitation
Precipitation 0.05 in 0.27 in 1.89 in (1975)
Month to date precipitation 3.08  
Year to date precipitation 13.41  
Wind
Wind Speed 3 mph   
Max Wind Speed 9 mph   
Max Gust Speed mph   
Visibility 6 miles   
Events Fog , Rain   

Key: T is trace of precipitation, MM is missing value
Source: NWS Daily Summary
Time(PST)TemperatureDew PointHumidity Pressure Visibility Wind DirectionWind SpeedGust SpeedPrecipitationEvents Conditions
12:53 AM 43.0°F 37.9°F 82% 30.35 in 10.0 miles West 3.5 mph - N/A   Overcast
1:53 AM 43.0°F 39.0°F 86% 30.36 in 10.0 miles WNW 3.5 mph - N/A   Overcast
2:39 AM 42.8°F 39.2°F 87% 30.35 in 10.0 miles Calm Calm - N/A   Overcast
2:53 AM 43.0°F 39.0°F 86% 30.36 in 10.0 miles NW 3.5 mph - N/A   Overcast
3:28 AM 42.8°F 39.2°F 87% 30.35 in 10.0 miles West 6.9 mph - N/A   Overcast
3:53 AM 43.0°F 39.0°F 86% 30.35 in 10.0 miles West 4.6 mph - N/A   Overcast
4:53 AM 42.1°F 39.0°F 89% 30.35 in 10.0 miles Calm Calm - N/A   Overcast
5:01 AM 42.8°F 39.2°F 87% 30.34 in 10.0 miles Calm Calm - N/A   Overcast
5:53 AM 42.1°F 39.9°F 92% 30.36 in 10.0 miles Calm Calm - N/A   Overcast
6:27 AM 42.8°F 39.2°F 87% 30.35 in 10.0 miles Calm Calm - N/A   Overcast
6:45 AM 42.8°F 39.2°F 87% 30.35 in 5.0 miles Calm Calm - N/A   Overcast
6:53 AM 42.1°F 39.0°F 89% 30.36 in 3.0 miles Calm Calm - N/A   Overcast
7:01 AM 42.8°F 39.2°F 87% 30.35 in 2.5 miles Calm Calm - N/A   Overcast
7:07 AM 42.8°F 39.2°F 87% 30.35 in 3.0 miles Calm Calm - N/A   Overcast
7:31 AM 42.8°F 39.2°F 87% 30.35 in 2.5 miles Calm Calm - N/A   Overcast
7:44 AM 42.8°F 41.0°F 93% 30.35 in 1.8 miles Calm Calm - 0.01 in   Overcast
7:53 AM 42.1°F 41.0°F 96% 30.36 in 1.8 miles Calm Calm - 0.01 in   Overcast
7:56 AM 42.8°F 41.0°F 93% 30.35 in 2.0 miles Calm Calm - N/A   Overcast
8:07 AM 42.8°F 41.0°F 93% 30.35 in 1.5 miles Calm Calm - N/A   Overcast
8:45 AM 42.8°F 41.0°F 93% 30.35 in 2.0 miles East 4.6 mph - N/A   Overcast
8:53 AM 42.1°F 41.0°F 96% 30.36 in 1.2 miles East 4.6 mph - N/A   Overcast
9:53 AM 43.0°F 42.1°F 97% 30.36 in 1.2 miles ENE 4.6 mph - N/A   Overcast
10:16 AM 42.8°F 42.8°F 100% 30.35 in 2.0 miles ENE 4.6 mph - 0.01 in Rain Light Rain
10:32 AM 44.6°F 42.8°F 93% 30.35 in 1.8 miles ENE 3.5 mph - 0.01 in   Overcast
10:45 AM 44.6°F 42.8°F 93% 30.35 in 2.0 miles ENE 3.5 mph - 0.01 in   Overcast
10:53 AM 44.1°F 43.0°F 96% 30.36 in 1.5 miles Calm Calm - 0.02 in   Overcast
11:53 AM 45.0°F 44.1°F 97% 30.35 in 1.0 miles Calm Calm - 0.01 in Rain Light Rain
12:25 PM 46.4°F 44.6°F 93% 30.33 in 3.0 miles Calm Calm - 0.01 in   Overcast
12:53 PM 48.0°F 46.0°F 93% 30.35 in 9.0 miles Calm Calm - 0.01 in   Overcast
1:08 PM 48.2°F 46.4°F 93% 30.33 in 9.0 miles WSW 6.9 mph - N/A   Overcast
1:15 PM 48.2°F 46.4°F 93% 30.33 in 5.0 miles WSW 6.9 mph - N/A   Overcast
1:21 PM 48.2°F 46.4°F 93% 30.33 in 2.5 miles WSW 6.9 mph - N/A   Overcast
1:30 PM 48.2°F 46.4°F 93% 30.33 in 4.0 miles WSW 6.9 mph - N/A   Overcast
1:36 PM 48.2°F 46.4°F 93% 30.33 in 2.5 miles WSW 8.1 mph - N/A   Overcast
1:39 PM 48.2°F 46.4°F 93% 30.33 in 3.0 miles WSW 6.9 mph - N/A   Overcast
1:46 PM 48.2°F 46.4°F 93% 30.33 in 7.0 miles WSW 8.1 mph - N/A   Overcast
1:53 PM 48.0°F 46.9°F 96% 30.34 in 10.0 miles WSW 8.1 mph - N/A   Overcast
2:53 PM 48.9°F 46.0°F 90% 30.34 in 10.0 miles WSW 9.2 mph - N/A   Overcast
3:02 PM 48.2°F 46.4°F 93% 30.33 in 10.0 miles WSW 8.1 mph - N/A   Overcast
3:13 PM 48.2°F 46.4°F 93% 30.33 in 10.0 miles WSW 9.2 mph - N/A   Overcast
3:48 PM 48.2°F 46.4°F 93% 30.34 in 10.0 miles WSW 6.9 mph - N/A   Overcast
3:53 PM 48.0°F 46.0°F 93% 30.35 in 10.0 miles WSW 8.1 mph - N/A   Overcast
4:21 PM 46.4°F 46.4°F 100% 30.34 in 10.0 miles WSW 8.1 mph - N/A   Overcast
4:53 PM 46.9°F 46.0°F 97% 30.35 in 10.0 miles WSW 8.1 mph - N/A   Overcast
5:07 PM 46.4°F 44.6°F 93% 30.34 in 10.0 miles WSW 6.9 mph - N/A   Overcast
5:27 PM 46.4°F 44.6°F 93% 30.34 in 8.0 miles WSW 6.9 mph - N/A   Overcast
5:53 PM 46.0°F 45.0°F 96% 30.36 in 10.0 miles WSW 6.9 mph - N/A   Overcast
6:15 PM 46.4°F 44.6°F 93% 30.35 in 10.0 miles WSW 5.8 mph - N/A   Overcast
6:26 PM 46.4°F 44.6°F 93% 30.35 in 10.0 miles WSW 5.8 mph - N/A   Overcast
6:53 PM 46.0°F 45.0°F 96% 30.36 in 7.0 miles WSW 4.6 mph - N/A   Overcast
7:03 PM 46.4°F 44.6°F 93% 30.35 in 6.0 miles WSW 3.5 mph - N/A   Overcast
7:27 PM 46.4°F 44.6°F 93% 30.35 in 7.0 miles WSW 4.6 mph - N/A   Overcast
7:46 PM 46.4°F 44.6°F 93% 30.35 in 8.0 miles WSW 4.6 mph - N/A   Overcast
7:53 PM 46.4°F 44.6°F 93% 30.35 in 9.0 miles WSW 3.5 mph - N/A   Overcast
8:13 PM 44.6°F 44.6°F 100% 30.35 in 9.0 miles WSW 4.6 mph - N/A   Mostly Cloudy
8:34 PM 44.6°F 44.6°F 100% 30.34 in 8.0 miles SW 3.5 mph - N/A   Overcast
8:53 PM 45.0°F 44.1°F 97% 30.35 in 10.0 miles SW 5.8 mph - N/A   Overcast
9:40 PM 44.6°F 44.6°F 100% 30.35 in 10.0 miles SW 4.6 mph - N/A   Overcast
9:53 PM 46.0°F 45.0°F 96% 30.36 in 8.0 miles WSW 3.5 mph - N/A   Overcast
10:01 PM 44.6°F 44.6°F 100% 30.35 in 6.0 miles WSW 3.5 mph - N/A   Overcast
10:31 PM 44.6°F 44.6°F 100% 30.36 in 2.5 miles SW 4.6 mph - N/A   Overcast
10:41 PM 44.6°F 44.6°F 100% 30.36 in 0.8 miles WSW 3.5 mph - N/A   Overcast
10:53 PM 45.0°F 45.0°F 100% 30.37 in 0.5 miles West 4.6 mph - N/A Fog Fog
11:14 PM 44.6°F 44.6°F 100% 30.36 in 1.5 miles Calm Calm - N/A   Overcast
11:41 PM 44.6°F 44.6°F 100% 30.36 in 3.0 miles Calm Calm - N/A   Overcast
11:53 PM 46.0°F 45.0°F 96% 30.38 in 2.0 miles Calm Calm - N/A   Overcast
11:58 PM 44.6°F 44.6°F 100% 30.36 in 1.8 miles Calm Calm - 0.01 in   Overcast
Moon Phase
Feb. 11 Feb. 17 Feb. 25 Mar. 04 Mar. 11
Sunrise:07:25 AM (PST) Moon Rise:07:43 AM (PST)2/11
Sunset:05:34 PM (PST) Moon Set:07:49 PM (PST)2/11

Copyright © 2014 The Weather Underground, Inc.